TIME,DELAY(SENSOR),PRES,OXYGEN,RAWTEMP,T(OPTODE),TCPHASE,FLUOR,BETA(BETA700),BETA(BETA412),BETA(BETA440),CDOM,C(CSC),ED(ED412.40),ED(ED444.00),ED(ED489.70),ED(ED554.30),LU(LU411.80),LU(LU443.40),LU(LU489.60),LU(LU554.10),COMP,TILTX,TILTY,CHECK
1377139222,5810,875.2100219726562000,45.7695999145507800,662.0866699218750000,4.5592517852783200,54.1721305847168000,53,100,85,79,79,15291,2147755008,2147426322,2148010477,2147876544,2147642166,2147049746,2148258880,2147194962,22,4,13,23801
1377142818,5811,948.5999755859375000,48.9711799621582000,670.9694213867188000,4.2661690711975100,53.8268585205078100,52,99,84,79,79,15293,2147754157,2147421156,2148014144,2147873819,2147639762,2147048274,2148262720,2147199076,522,4,13,4906
1377146418,5810,967.3300170898438000,49.7855110168457000,671.9146118164062000,4.2349319458007810,53.7268791198730500,52,98,83,77,79,15292,2147755556,2147424448,2148010121,2147878317,2147642340,2147050962,2148263524,2147195035,270,4,13,35445
1377150018,5804,991.1400146484375000,51.7027511596679700,674.8317871093750000,4.1384530067443850,53.4991798400878900,52,102,85,77,79,15292,2147759021,2147424438,2148011282,2147876397,2147641874,2147053586,2148263497,2147197970,161,4,13,61075
1377153618,5807,997.7399902343750000,51.0001983642578100,675.1964721679688000,4.1263828277587890,53.6017913818359400,52,98,83,78,79,15289,2147756818,2147427574,2148011136,2147874432,2147644918,2147049206,2148259556,2147194166,605,4,13,52030
1377157218,5803,998.1900024414062000,51.0716514587402340,674.8955078125000000,4.1363430023193360,53.5875511169433600,53,97,85,78,79,15293,2147756598,2147423369,2148013942,2147877357,2147645449,2147049572,2148260635,2147194468,3443,4,13,16735
1377160818,5808,1004.7299804687500000,50.8296890258789060,675.3502807617188000,4.1212921142578125,53.6257019042968750,53,99,83,78,79,15289,2147757458,2147426221,2148011117,2147879369,2147643657,2147051684,2148259867,2147197220,21,4,13,13815
1377164418,5807,1010.4299926757812000,50.7505493164062500,675.0858154296875000,4.1300468444824220,53.6342506408691400,53,98,82,79,80,15289,2147760265,2147423606,2148012736,2147877174,2147643748,2147051593,2148263808,2147195995,3462,4,13,23530
1377168018,5811,1012.7000122070312000,50.4719085693359400,674.6815795898438000,4.1434230804443360,53.6617088317871100,53,97,82,78,78,15291,2147756169,2147427081,2148014180,2147874102,2147644589,2147052214,2148261403,2147195812,301,4,13,22443
1377171618,5810,1006.5800170898438000,51.0968093872070300,674.6707763671875000,4.1437778472900390,53.5815086364746100,52,101,86,78,79,15289,2147756214,2147427730,2148011730,2147875986,2147643977,2147050011,2148266450,2147198052,49,4,13,51639
1377175218,5809,1002.6099853515625000,50.5882301330566400,676.0739746093750000,4.0973420143127440,53.6676101684570300,53,97,85,77,78,15290,2147757257,2147427245,2148008868,2147876251,2147644699,2147055552,2148262546,2147198034,54,4,13,22242
1377178818,5811,1000.8699951171875000,50.6331100463867200,676.4863281250000000,4.0836930274963380,53.6669006347656250,52,99,80,78,79,15289,2147756260,2147424685,2148016265,2147874203,2147644150,2147052736,2148261952,2147196589,325,4,13,60445
1377182418,5811,1005.9600219726562000,50.4387817382812500,676.1848144531250000,4.0936741828918460,53.6840400695800800,53,98,79,78,80,15288,2147758582,2147425572,2148014217,2147874587,2147644434,2147054966,2148263835,2147197412,26,4,13,33490
1377186018,5808,1005.6900024414062000,50.7641105651855500,676.4321899414062000,4.0854840278625490,53.6473693847656250,52,97,84,78,79,15290,2147756315,2147424603,2148012086,2147875949,2147643382,2147051684,2148262336,2147196260,3578,4,13,18053
1377189618,5808,996.4799804687500000,50.8214912414550800,677.4257202148438000,4.0525860786437990,53.6530914306640600,52,99,88,78,78,15263,2147757138,2147425462,2148014710,2147874194,2147645257,2147051611,2148262930,2147198144,449,4,13,23920
1377193218,5807,1003.5300292968750000,51.1166610717773440,676.9343872070312000,4.0688529014587400,53.6023902893066400,53,98,86,77,78,15269,2147755666,2147425536,2148010020,2147875382,2147645540,2147051081,2148261449,2147194770,308,4,13,55162
1377196818,5811,1005.5200195312500000,50.6439399719238300,676.6196899414062000,4.0792751312255860,53.6645812988281250,53,99,84,79,78,15266,2147756763,2147423936,2148013257,2147875483,2147644580,2147051812,2148259346,2147199661,3484,4,13,19869
1377200418,5811,1014.6199951171875000,50.5182991027832000,676.3032226562500000,4.0897541046142580,53.6767692565918000,53,98,86,79,79,15262,2147754797,2147425170,2148013394,2147877924,2147644352,2147053668,2148257874,2147198738,3595,4,13,3111
1377204018,5810,1013.4199829101562000,49.7740898132324200,676.2067871093750000,4.0929431915283200,53.7807502746582000,51,99,85,78,79,15259,2147757074,2147425206,2148012233,2147877851,2147643657,2147054061,2148254985,2147195913,67,4,13,21522
1377207618,5807,1010.8599853515625000,49.3452606201171900,675.7918090820312000,4.1066818237304690,53.8331413269043000,51,98,86,78,79,15260,2147756050,2147424841,2148012800,2147875666,2147642770,2147048228,2148258669,2147198235,204,4,13,15473
1377211218,5810,1003.8099975585938000,50.0016403198242200,676.7299804687500000,4.0756230354309080,53.7548484802246100,52,98,82,78,79,15259,2147757577,2147428745,2148010441,2147874898,2147643181,2147052004,2148264749,2147198482,39,4,13,19224
1377214818,5810,1006.9299926757812000,50.9287910461425800,677.2495117187500000,4.0584220886230470,53.6364402770996100,53,99,84,78,80,15258,2147757869,2147426267,2148012333,2147876132,2147643684,2147053001,2148264877,2147199643,3553,3,13,21945
1377218418,5810,1008.0700073242188000,50.4638099670410160,676.6757812500000000,4.0774168968200680,53.6944618225097660,53,96,83,77,79,15262,2147758619,2147425846,2148011172,2147878829,2147644050,2147051968,2148268699,2147198464,3562,4,13,28915
1377222018,5806,1009.2899780273438000,50.3468894958496100,677.1207275390625000,4.0626850128173830,53.7147407531738300,53,96,89,77,79,15258,2147758582,2147424246,2148015442,2147877330,2147643062,2147053558,2148261952,2147198637,3453,4,13,10684
1377225618,5810,1014.1500244140625000,50.3825607299804700,676.2852172851562000,4.0903468132019040,53.6936988830566400,52,122,82,79,80,15257,2147757403,2147424896,2148012105,2147876352,2147641636,2147050651,2148262518,2147198628,546,4,13,16307
1377229218,5811,1006.8099975585938000,50.5344200134277340,677.4768066406250000,4.0508918762207030,53.6893196105957000,53,98,86,79,78,15258,2147756589,2147425161,2148012553,2147877650,2147645705,2147052653,2148263817,2147195008,130,4,13,30240
1377232818,5810,1014.6900024414062000,50.0253295898437500,676.6243286132812000,4.0791230201721190,53.7508888244628900,53,98,83,77,79,15258,2147757211,2147426057,2148012534,2147874797,2147640685,2147052068,2148264521,2147196992,185,4,13,17386
1377236418,5807,1019.8200073242188000,49.9757308959960940,676.8129882812500000,4.0728740692138670,53.7604408264160160,52,100,88,77,80,15257,2147757028,2147425846,2148011904,2147873856,2147643181,2147047323,2148264356,2147195977,612,4,13,32061
1377240018,5808,1021.4600219726562000,50.0671386718750000,675.0529174804688000,4.1311378479003910,53.7263183593750000,53,99,85,83,79,15259,2147755053,2147424283,2148012379,2147877010,2147642733,2147048219,2148257115,2147199296,237,4,13,59553
1377243618,5810,1021.2399902343750000,49.6813201904296900,675.1618041992188000,4.1275329589843750,53.7786712646484400,53,98,86,79,78,15258,2147758811,2147425965,2148009746,2147873334,2147644937,2147047040,2148260781,2147197997,3525,4,13,18105
1377247218,5810,1024.9399414062500000,50.3496208190918000,674.7374267578125000,4.1415748596191410,53.6838989257812500,53,99,81,79,79,15258,2147758400,2147425353,2148013933,2147873225,2147644992,2147053732,2148260288,2147198208,404,4,13,62079
1377250818,5812,1021.6300048828125000,50.0342903137207000,674.9033813476562000,4.1360840797424320,53.7272911071777340,52,97,86,80,78,15257,2147755648,2147430564,2148012160,2147879780,2147642880,2147052626,2148264329,2147198006,94,4,13,12876
1377254418,5811,1015.5200195312500000,49.4028091430664060,676.1068115234375000,4.0962538719177250,53.8260116577148440,53,102,84,78,78,15257,2147758793,2147425773,2148011913,2147872502,2147642194,2147053083,2148266697,2147199433,3478,4,13,4367
1377258018,5807,1021.2199707031250000,50.3117408752441400,676.1182250976562000,4.0958790779113770,53.7026710510253900,52,98,87,79,78,15255,2147756809,2147424731,2148011419,2147878546,2147642733,2147054912,2148259501,2147193371,2858,4,13,47562
1377261618,5809,1013.5499877929688000,49.8540306091308600,676.4530029296875000,4.0847930908203125,53.7697715759277340,52,98,83,77,79,15255,2147757065,2147423652,2148011620,2147873590,2147644845,2147049508,2148261403,2147198646,3159,4,13,16709
1377265218,5812,1010.5599975585938000,50.1705894470214840,677.3717041015625000,4.0543727874755860,53.7435493469238300,52,98,81,78,79,15254,2147756882,2147424603,2148013851,2147876754,2147643977,2147051922,2148261568,2147197485,71,4,13,18749
1377268818,5809,1006.0000000000000000,50.3914985656738300,677.5692749023438000,4.0478291511535645,53.7088317871093750,52,97,84,79,79,15254,2147758436,2147426084,2148010212,2147875995,2147643081,2147050249,2148260489,2147198976,3463,3,13,60292
1377272418,5808,1011.5800170898438000,50.6795883178710940,677.4937133789062000,4.0503330230712890,53.6706809997558600,52,96,86,78,79,15251,2147758509,2147426980,2148010093,2147875520,2147645266,2147048804,2148264256,2147200210,117,4,13,54581
1377276018,5810,1009.0700073242188000,50.5749893188476560,677.1124877929688000,4.0629558563232420,53.6837882995605500,53,96,85,79,80,15252,2147757769,2147426998,2148010880,2147878390,2147643510,2147051638,2148260278,2147197147,3397,4,13,16077
1377279618,5809,1020.2899780273438000,50.8847389221191400,677.5972290039062000,4.0469059944152830,53.6444282531738300,53,99,85,79,78,15252,2147757842,2147425078,2148011867,2147875236,2147642486,2147041508,2148256813,2147197705,3175,4,13,10372
1377283218,5808,1024.8699951171875000,51.0100898742675800,676.8618774414062000,4.0712571144104000,53.6180000305175800,52,99,84,76,79,15248,2147753563,2147423625,2148011840,2147874386,2147645083,2147050624,2148260269,2147197366,3144,4,13,36321
1377286818,5809,1014.8300170898438000,50.0067481994628900,676.6510009765625000,4.0782380104064940,53.7546005249023440,51,98,87,79,79,15250,2147754852,2147425764,2148013019,2147877275,2147644754,2147054125,2148260507,2147195821,53,4,13,28666
1377287755,5809,1012.5300292968750000,50.3091583251953100,676.9215698242188000,4.0692811012268070,53.7167701721191400,52,98,87,79,80,15276,2147760173,2147428114,2148009920,2147876525,2147645275,2147049664,2148263396,2147198208,196,4,13,59624
